Weather History for KDMN - October, 2012

Change the Weather History Date:

Wednesday, October 31, 2012

  Actual Average Record
Temperature  
Mean Temperature 57 °F 56 °F  
Max Temperature 79 °F 72 °F 87 °F (1950)
Min Temperature 34 °F 40 °F 22 °F (1993)
Degree Days  
Heating Degree Days 8    
Growing Degree Days 6 (Base 50)    
Moisture  
Dew Point 12 °F    
Average Humidity 21    
Maximum Humidity 35    
Minimum Humidity 7    
Precipitation  
Precipitation 0.00 in 0.03 in 0.90 in (1951)
Month to date precipitation 0.04 1.06  
Year to date precipitation 3.75 9.95  
Sea Level Pressure  
Sea Level Pressure 29.99 in    
Wind  
Wind Speed 2 mph (SW)    
Max Wind Speed 9 mph    
Max Gust Speed 13 mph    
Visibility 9 miles    
Events      
T = Trace of Precipitation, MM = Missing Value Source: NWS Daily Summary

Daily Weather History Graph

Daily Weather History Graph

Search for Another Location

Airport or City:

Trip Planner

Search our weather history database for the weather conditions in past years. The results will help you decide how hot, cold, wet, or windy it might be!

Date:

Astronomy

Oct. 31, 2012 Rise Set
Actual Time 7:27 AM MDT 6:20 PM MDT
Civil Twilight 7:02 AM MDT 6:46 PM MDT
Nautical Twilight 6:33 AM MDT 7:15 PM MDT
Astronomical Twilight 6:04 AM MDT 7:43 PM MDT
Moon 7:41 PM MDT (10/31) 9:04 AM MDT (10/31)
Length of Visible Light 11h 44m
Length of Day
10h 53m
Full, 97% of the Moon is Illuminated
Oct 31
Full
Nov 6
Last Quarter
Nov 13
New
Nov 20
First Quarter
Nov 28
Full

Hourly Weather History & Observations

Time (MDT) Temp. Windchill Dew Point Humidity Pressure Visibility Wind Dir Wind Speed Gust Speed Precip Events Conditions
12:53 AM 46.0 °F 44.8 °F 8.1 °F 21% 29.95 in 10.0 mi South 3.5 mph - N/A   Clear
1:53 AM 44.1 °F 42.5 °F 9.0 °F 24% 29.96 in 10.0 mi SW 3.5 mph - N/A   Clear
2:53 AM 42.1 °F 40.2 °F 9.0 °F 26% 29.96 in 10.0 mi WSW 3.5 mph - N/A   Clear
3:53 AM 37.9 °F - 7.0 °F 28% 29.98 in 10.0 mi Calm Calm - N/A   Clear
4:53 AM 41.0 °F 38.0 °F 10.9 °F 29% 29.97 in 9.0 mi SW 4.6 mph - N/A   Clear
5:53 AM 37.9 °F - 10.0 °F 32% 29.98 in 8.0 mi Calm Calm - N/A   Clear
6:53 AM 34.0 °F - 9.0 °F 35% 30.02 in 7.0 mi Calm Calm - N/A   Clear
7:53 AM 35.1 °F 32.2 °F 9.0 °F 34% 30.06 in 5.0 mi SW 3.5 mph - N/A   Haze
8:53 AM 46.0 °F - 12.9 °F 26% 30.06 in 6.0 mi Calm Calm - N/A   Haze
9:53 AM 57.0 °F - 15.1 °F 19% 30.06 in 9.0 mi Calm Calm - N/A   Clear
10:53 AM 64.9 °F - 14.0 °F 14% 30.05 in 10.0 mi Calm Calm - N/A   Clear
11:53 AM 72.0 °F - 17.1 °F 12% 30.02 in 10.0 mi Calm Calm - N/A   Clear
12:53 PM 77.0 °F - 18.0 °F 11% 29.99 in 10.0 mi SSE 5.8 mph - N/A   Clear
1:53 PM 78.1 °F - 16.0 °F 10% 29.96 in 10.0 mi SW 5.8 mph - N/A   Clear
2:53 PM 78.1 °F - 15.1 °F 9% 29.94 in 10.0 mi Variable 3.5 mph - N/A   Clear
3:53 PM 79.0 °F - 12.0 °F 8% 29.93 in 10.0 mi WSW 4.6 mph - N/A   Clear
4:53 PM 78.1 °F - 10.0 °F 7% 29.92 in 10.0 mi SW 4.6 mph - N/A   Clear
5:53 PM 77.0 °F - 10.0 °F 8% 29.94 in 10.0 mi WSW 3.5 mph - N/A   Clear
6:53 PM 66.0 °F - 14.0 °F 13% 29.99 in 10.0 mi Calm Calm - N/A   Clear
7:53 PM 60.1 °F - 15.1 °F 17% 30.01 in 10.0 mi Calm Calm - N/A   Clear
8:53 PM 53.1 °F - 7.0 °F 16% 30.01 in 10.0 mi Calm Calm - N/A   Clear
9:53 PM 51.1 °F - 12.9 °F 22% 30.00 in 10.0 mi Calm Calm - N/A   Clear
10:53 PM 48.9 °F - 18.0 °F 29% 29.99 in 10.0 mi WNW 6.9 mph - N/A   Clear
11:53 PM 50.0 °F - 10.9 °F 21% 29.96 in 10.0 mi NW 4.6 mph - N/A   Clear